Location: Unspecified
(36.8347°N, 0.0000°E)
Time: 09:51:21
(UTC+00:00)

Oscar 11 - Visible Passes

Search period start: 05 April 2026 00:00
Search period end: 15 April 2026 00:00
Orbit: 590 x 603 km, 97.8° (Epoch: 29 March)

Date Brightness Start Highest point End Pass type
(mag) Time Alt. Az. Time Alt. Az. Time Alt. Az.
5 Apr 7.0 03:31:20 10° NNE 03:35:15 77° NNE 03:35:15 77° NNE visible
6 Apr 6.9 03:41:13 10° N 03:45:22 69° WNW 03:45:22 69° WNW visible
7 Apr 10.0 02:18:13 10° ENE 02:18:48 11° E 02:18:48 11° E visible
7 Apr 7.1 03:51:09 10° N 03:55:14 52° WNW 03:55:29 51° W visible
8 Apr 9.7 02:26:57 10° ENE 02:28:55 14° E 02:28:55 14° E visible
8 Apr 7.5 04:01:08 10° N 04:05:03 39° WNW 04:05:35 37° W visible
9 Apr 9.4 02:36:13 10° NE 02:39:01 19° E 02:39:01 19° E visible
9 Apr 7.9 04:11:10 10° N 04:14:51 30° WNW 04:15:41 28° W visible
10 Apr 8.9 02:45:41 10° NE 02:49:06 24° E 02:49:06 24° E visible
10 Apr 8.2 04:21:16 10° NNW 04:24:38 24° WNW 04:25:47 21° W visible
11 Apr 8.5 02:55:15 10° NNE 02:59:02 31° E 02:59:12 31° ESE visible
11 Apr 8.5 04:31:28 10° NNW 04:34:24 19° WNW 04:35:52 16° W visible
12 Apr 8.0 03:04:55 10° NNE 03:08:54 41° E 03:09:18 40° ESE visible
12 Apr 8.8 04:41:49 10° NNW 04:44:09 15° WNW 04:45:58 12° W visible
13 Apr 7.5 03:14:38 10° NNE 03:18:46 55° E 03:19:23 50° SE visible
13 Apr 9.0 04:52:31 10° NW 04:53:53 11° WNW 04:55:16 10° W visible
14 Apr 7.1 03:24:24 10° NNE 03:28:37 74° ESE 03:29:27 54° SSE visible
